Location: Narrabri
(30.3170°S, 149.7830°E)
Time: 23:49:07
(UTC+11:00)

Tiangong 1 - Pass Details

Date: 10 October 2017
Orbit: 294 x 320 km, 42.8° (Epoch: 18 October)

Event Time Altitude Azimuth Distance (km) Brightness Sun altitude
Exits shadow 04:49:55 29° 131° (SE) 590 2.6 -21.4°
Drops below altitude 10° 04:51:25 10° 126° (SE) 1,189 4.6 -21.1°
Sets 04:53:25 0° 124° (SE) 2,026 6.2 -20.7°
